STARLINK-1922

Last updated on Tue Nov 24 2020 00:02:02 GMT+0000 (Coordinated Universal Time)

1 46753U 20074Q 20328.58334491 .00003457 00000-0 43548-4 0 9997 2 46753 53.0548 13.3870 0001261 53.7219 22.6705 15.62766654 1800

Satellite not in orbit

STARLINK-1922